Temperature
17 16 16 16 16 16 16 16 16 16 16 16 15 15 15 15 15 15 15 15 15 15 15 15 15 15 14 14 14 14 14 14 14 13 13 12 12 12 12 12 12 12 12
17 16 16 16 16 16 16 16 16 16 16 16 16 15 15 15 15 15 15 15 15 15 15 15 15 15 14 14 14 14 14 14 14 13 13 12 12 12 12 12 12 12 12
17 16 16 16 16 16 16 16 16 16 16 16 16 15 15 15 15 15 15 15 15 15 15 15 15 14 14 14 14 14 14 14 13 13 13 13 12 12 12 12 12 12 12
17 16 16 16 16 16 16 16 16 16 16 16 15 15 15 15 15 15 15 15 15 15 15 14 14 14 14 14 14 14 14 14 13 13 13 13 12 12 12 12 12 12 12
17 16 16 16 16 16 16 16 16 16 16 15 15 15 15 15 15 15 15 15 15 15 14 14 14 14 14 14 14 14 14 13 13 13 13 13 12 12 12 12 12 12 12
17 17 16 16 16 16 16 16 16 16 16 15 15 15 15 15 15 15 15 15 15 15 15 14 14 14 14 14 14 14 13 13 13 13 13 13 12 12 12 12 12 12 11
17 17 16 16 16 16 16 16 16 16 16 15 15 15 15 15 15 15 15 15 15 15 14 14 14 14 14 14 14 13 13 13 13 13 13 13 12 12 12 12 12 11 11
17 17 16 16 16 16 16 16 15 15 15 15 15 15 15 15 15 15 15 15 14 14 14 14 14 14 14 14 14 13 13 13 13 13 13 12 12 12 12 12 11 11 11
17 17 16 16 16 16 16 16 16 15 15 15 15 15 15 15 15 15 14 14 14 14 14 14 14 14 14 13 13 13 13 13 13 12 12 12 12 12 11 11 11 11 11
17 17 17 16 16 16 16 16 16 16 15 15 15 15 15 15 15 15 14 14 14 14 14 14 14 14 14 13 13 13 13 13 13 12 12 12 12 11 11 11 11 11 11
17 17 17 17 16 16 16 16 16 16 15 15 15 15 15 15 15 14 14 14 14 14 14 14 14 13 13 13 13 13 13 12 12 12 12 12 11 11 11 11 11 10 10
17 17 17 17 16 16 16 16 16 15 15 15 15 15 15 14 14 14 14 14 14 14 14 13 13 13 13 13 13 13 12 12 12 12 12 12 11 11 11 10 10 10 10
17 17 17 17 16 16 16 16 15 15 15 15 15 15 15 14 14 14 14 14 13 13 13 13 13 13 13 13 12 12 12 12 12 12 11 11 11 10 10 10 10 10 9
17 17 17 16 16 16 16 16 15 15 15 15 15 15 14 14 14 14 14 14 13 13 13 13 13 12 12 12 12 12 12 11 11 11 11 11 10 10 10 10 10 9 9
17 16 16 16 16 15 15 15 15 15 15 15 15 15 14 14 14 14 14 13 13 13 13 12 12 12 12 12 12 12 11 11 11 11 11 10 10 10 9 9 9 9 8
16 16 16 15 15 15 15 15 15 15 15 14 14 14 14 14 14 13 13 13 13 12 12 12 12 12 12 12 11 11 11 11 10 10 10 10 9 9 9 9 8 8 8
16 16 15 15 15 15 15 15 15 14 14 14 14 13 13 13 13 13 13 12 12 12 12 12 12 12 11 11 11 11 10 10 10 10 9 9 9 8 8 8 8 7 7
15 15 15 15 15 15 15 14 14 14 14 14 13 13 13 13 12 12 12 12 12 11 11 11 11 11 11 11 10 10 10 10 10 9 9 9 8 8 8 7 7 7 7
15 15 15 14 14 14 14 14 14 14 14 13 13 13 13 12 12 12 11 11 11 11 11 11 11 11 10 10 10 10 10 9 9 9 9 8 8 8 7 7 7 6 6
14 14 14 14 14 14 14 13 13 13 13 13 13 12 12 12 12 11 11 11 11 11 11 11 11 10 10 10 10 10 9 9 9 9 8 8 8 7 7 7 6 6 6
14 14 14 13 13 13 13 13 13 13 12 12 12 12 12 12 11 11 11 11 11 11 11 10 10 10 10 10 9 9 9 9 9 8 8 8 8 7 7 6 6 6 5
13 13 13 13 13 13 13 12 12 12 12 12 12 11 11 11 11 11 11 11 10 10 10 10 10 10 10 9 9 9 9 9 8 8 8 7 7 7 6 6 5 5 5
13 13 13 13 13 12 12 12 12 12 12 11 11 11 11 11 10 10 10 10 10 10 10 10 9 9 9 9 9 8 8 8 8 7 7 7 6 6 6 5 5 5 4
13 13 12 12 12 12 12 11 11 11 11 11 11 10 10 10 10 10 10 10 9 9 9 9 9 9 9 8 8 8 8 7 7 7 6 6 6 5 5 5 5 4 4
12 12 12 12 12 11 11 11 11 11 11 10 10 10 10 10 10 9 9 9 9 9 9 9 8 8 8 8 8 7 7 7 6 6 6 6 5 5 5 4 4 4 3
12 12 11 11 11 11 11 11 11 10 10 10 10 10 10 9 9 9 9 9 9 8 8 8 8 8 7 7 7 7 7 6 6 6 5 5 5 5 4 4 4 3 3
Wind_Speed
6 5 5 5 5 4 4 4 4 3 4 4 4 4 4 3 4 4 3 4 4 3 3 3 3 3 3 3 3 3 3 4 3 0 1 1 1 1 2 2 3 3 4
6 6 6 6 5 4 4 4 4 3 3 4 4 4 4 4 4 4 4 4 4 3 2 3 3 3 3 3 3 3 3 3 4 2 0 1 0 0 1 1 2 2 2
6 6 6 5 5 5 5 4 4 4 3 4 5 5 4 4 4 4 4 4 3 3 3 4 3 4 3 2 3 3 2 2 3 3 1 0 1 1 1 2 2 3 3
6 6 6 6 6 5 5 4 4 5 4 4 4 5 5 4 4 4 4 4 3 2 2 3 4 5 5 4 3 3 3 3 3 3 1 0 0 1 1 1 2 2 2
7 7 7 6 6 5 5 4 4 4 5 5 5 4 4 4 4 4 4 4 4 3 2 2 3 5 6 6 5 4 4 3 3 2 1 1 1 1 1 1 0 2 2
8 8 7 6 6 6 5 5 4 4 4 5 5 5 4 4 7 8 6 4 4 3 3 2 2 3 5 6 7 7 7 6 4 3 2 1 2 2 1 1 0 1 2
8 8 7 7 7 6 6 5 5 5 5 5 5 5 5 4 7 8 7 5 4 3 3 3 3 3 4 3 4 5 4 5 7 6 4 3 3 3 3 1 1 1 2
8 8 7 7 7 7 6 6 6 5 5 5 5 5 5 4 7 8 8 5 4 3 3 4 4 2 3 5 4 3 2 1 2 3 4 4 3 3 4 3 3 1 1
8 8 8 8 8 7 8 7 6 5 5 5 5 5 5 4 6 7 8 4 3 3 3 3 4 3 4 7 5 4 2 1 0 2 3 3 2 2 4 3 2 1 1
10 9 9 8 9 9 9 7 5 5 6 6 5 5 5 4 5 7 8 4 4 2 2 2 4 5 6 7 5 5 3 2 1 2 2 1 1 0 2 3 3 2 1
9 8 8 9 10 9 8 6 5 6 6 5 5 4 4 4 5 7 9 5 5 4 2 2 2 6 6 7 6 4 5 3 2 2 1 1 2 2 2 0 2 3 2
7 7 8 8 8 8 7 6 6 7 6 5 4 3 2 3 4 6 8 8 7 5 3 3 3 6 6 6 5 4 5 4 2 2 2 1 1 1 1 1 1 1 1
8 7 6 6 6 7 8 8 6 6 6 5 4 4 3 2 3 6 8 8 8 5 3 5 4 4 4 3 4 5 4 3 2 2 1 1 1 1 0 1 2 2 3
8 8 7 6 5 4 5 6 6 6 6 6 5 5 3 2 2 3 3 4 5 4 2 2 3 3 2 2 2 2 2 2 2 2 2 1 0 0 0 0 0 1 1
8 7 7 6 7 5 4 4 6 6 7 8 6 6 5 5 6 8 6 5 5 5 4 3 2 2 1 1 1 1 1 1 1 1 1 1 0 0 0 0 0 1 0
8 7 6 6 6 6 5 3 2 3 5 7 7 7 5 6 7 8 8 8 8 9 6 3 3 3 3 2 2 1 1 2 2 1 1 1 1 2 1 0 0 1 1
8 8 6 6 6 6 6 6 4 2 3 4 5 7 6 6 7 8 8 8 7 9 5 3 3 4 3 3 3 2 2 2 2 2 2 2 2 2 1 1 1 1 2
8 8 7 6 6 6 6 5 5 5 4 1 1 5 6 6 7 7 8 7 4 4 3 3 3 3 3 3 3 3 2 2 2 2 2 2 2 2 2 2 2 2 3
6 6 6 5 6 5 5 4 4 5 5 3 2 2 4 5 5 5 7 5 4 4 3 3 3 2 2 2 3 3 3 2 2 2 2 2 2 2 2 2 2 3 3
5 8 7 6 5 5 5 5 4 5 5 4 4 3 3 4 3 3 3 3 3 3 3 3 3 3 2 2 2 2 2 2 2 2 2 2 2 2 3 3 3 3 3
5 6 8 6 5 5 5 5 5 5 5 4 3 4 7 5 4 4 4 3 3 4 3 3 2 2 2 2 2 2 3 2 2 2 2 2 2 2 3 3 3 3 3
5 5 5 5 5 5 5 4 4 5 5 5 3 4 7 4 3 3 3 3 3 3 3 3 3 2 2 2 3 3 3 3 2 2 2 2 2 2 2 2 2 2 2
6 6 5 5 5 6 5 4 4 5 5 4 4 4 4 4 3 3 3 2 2 2 2 3 3 2 1 2 3 3 4 4 3 3 3 2 2 2 3 3 3 3 3
6 6 6 5 5 5 5 5 4 4 5 4 4 4 4 4 4 3 3 2 2 2 2 2 2 2 2 1 2 3 4 5 4 4 3 3 3 3 3 3 3 4 4
5 5 6 6 6 5 5 5 4 4 4 4 4 4 4 4 3 3 2 2 3 2 2 2 2 2 1 1 1 2 3 4 5 4 3 2 3 3 3 3 3 3 4
5 5 5 5 5 5 5 5 4 4 4 4 4 4 4 4 3 3 2 3 2 2 2 2 2 2 1 1 2 3 3 4 4 5 4 2 3 3 3 3 4 3 4
Wind_Direction
176 176 172 177 175 165 163 171 170 166 161 158 155 146 138 136 124 123 122 117 115 102 97 119 124 118 109 109 114 106 105 117 136 250 335 358 66 57 53 49 37 34 38
178 170 171 170 169 166 171 174 167 169 175 167 156 149 151 146 139 140 141 132 128 126 124 119 126 126 117 118 118 118 125 130 137 142 19 16 19 100 68 37 24 23 25
171 165 167 170 173 180 181 170 161 158 161 151 145 152 151 146 145 147 142 136 135 140 144 145 150 136 135 133 134 131 129 116 115 134 145 1 351 20 36 12 23 13 12
172 169 172 178 179 185 180 168 163 160 159 152 153 153 147 144 145 146 141 140 136 134 143 155 160 159 167 162 152 147 129 108 108 116 118 52 341 334 56 20 -0 350 348
172 177 185 183 174 174 175 172 161 158 160 153 145 144 146 152 158 147 143 144 142 135 130 148 162 162 166 161 156 155 140 129 122 120 120 53 350 12 280 267 279 322 327
176 186 188 176 171 174 176 167 159 158 151 143 148 151 152 161 159 155 144 140 145 148 150 143 138 141 149 150 151 153 152 151 156 149 155 180 236 231 221 184 130 42 323
183 187 184 179 178 180 174 162 165 168 158 152 157 153 153 166 162 156 151 142 145 152 157 151 135 132 132 133 131 130 141 151 157 160 165 195 204 212 182 173 171 174 234
184 186 185 182 182 178 170 173 176 165 162 162 165 162 157 172 165 162 156 139 135 146 154 156 150 148 152 145 131 115 105 110 163 159 176 199 203 192 183 184 183 173 309
187 191 189 185 183 179 178 182 178 165 166 168 164 165 164 178 175 168 153 141 137 148 155 154 157 161 163 151 137 136 119 340 61 159 177 189 182 161 155 115 100 92 332
196 195 190 187 186 189 191 185 174 165 172 168 164 171 173 184 183 176 162 150 152 159 147 157 161 159 157 155 152 153 163 220 129 76 66 32 29 67 151 152 161 149 179
195 189 186 189 191 189 186 178 165 164 162 166 169 177 186 193 191 180 171 164 169 168 168 183 179 157 152 154 156 165 184 174 141 125 91 36 30 33 33 150 164 156 168
177 182 187 190 190 183 174 174 167 164 164 172 172 179 204 207 187 177 171 171 164 161 178 190 183 162 156 155 160 164 152 133 118 109 98 61 20 350 344 34 150 175 187
168 177 181 178 181 176 175 174 166 168 173 180 178 187 202 197 190 178 172 171 169 165 174 169 166 167 163 162 158 153 144 132 128 132 178 233 245 245 47 40 39 51 39
174 177 170 162 160 160 169 173 173 179 180 181 183 192 193 184 187 179 174 171 167 165 164 141 134 122 127 121 123 142 154 156 162 189 210 235 252 61 48 34 51 41 34
172 170 165 160 157 155 156 174 181 190 185 182 189 186 183 197 201 181 175 179 177 168 141 112 101 100 112 99 101 121 150 152 177 195 191 201 180 148 281 349 123 96 138
167 166 164 159 155 153 146 123 113 153 159 170 174 173 188 190 174 170 171 172 169 157 137 140 164 178 191 197 197 203 194 203 207 195 194 201 213 220 241 275 133 179 245
166 164 160 159 158 159 159 159 152 100 98 145 167 172 173 169 166 164 164 159 156 150 145 166 182 193 200 202 203 205 213 213 190 187 207 216 220 227 228 236 234 244 254
157 159 159 162 164 167 170 170 168 162 155 140 147 164 168 162 159 162 155 133 124 141 159 176 194 198 197 200 205 208 211 198 186 196 207 215 213 218 231 245 238 237 248
151 155 159 158 159 162 162 159 158 162 160 154 134 129 151 143 135 137 138 141 157 173 188 194 196 193 193 198 202 199 194 199 200 200 214 217 216 214 234 242 238 244 240
153 154 150 151 151 150 155 159 162 165 167 168 176 184 145 122 127 135 149 163 173 183 190 197 200 194 193 192 188 184 189 199 204 214 227 229 226 221 232 238 240 244 245
151 156 148 145 151 155 158 165 168 167 170 173 182 169 152 154 167 166 168 179 191 198 195 194 197 194 195 190 185 183 186 203 210 217 225 231 224 230 238 236 236 236 243
152 154 157 157 156 155 155 159 161 165 170 168 158 145 150 153 162 165 177 189 197 187 174 164 182 184 191 190 190 192 201 218 230 231 234 232 228 232 235 234 238 242 244
148 148 147 149 148 151 150 152 157 161 159 157 150 144 150 166 168 172 179 183 164 155 148 153 164 175 177 190 195 198 213 228 235 230 222 226 228 231 229 232 235 243 249
148 151 153 153 150 154 158 160 159 158 158 157 153 153 156 162 165 171 176 153 143 136 131 143 157 169 169 180 203 216 228 236 231 224 218 219 226 232 231 235 242 249 252
149 153 155 157 157 158 157 157 156 157 158 155 154 154 152 152 158 168 166 153 148 144 137 139 141 147 166 197 230 256 262 251 241 234 224 222 226 233 234 236 241 247 250
141 145 148 149 151 153 154 154 156 158 159 154 153 153 153 157 164 170 165 158 157 158 150 147 153 166 189 241 260 262 267 267 265 247 226 222 225 238 241 244 246 249 254
Height
1541 1542 1543 1544 1546 1547 1548 1549 1550 1550 1551 1552 1553 1553 1554 1554 1555 1556 1556 1556 1556 1557 1557 1558 1558 1558 1558 1559 1559 1559 1559 1559 1558 1559 1558 1558 1557 1556 1555 1553 1552 1551 1549
1539 1540 1542 1543 1545 1546 1547 1548 1549 1550 1550 1551 1552 1553 1554 1554 1555 1555 1555 1556 1556 1556 1557 1557 1558 1558 1558 1558 1559 1559 1559 1559 1558 1558 1558 1558 1557 1556 1555 1554 1553 1552 1550
1538 1539 1540 1542 1543 1545 1546 1547 1548 1549 1550 1551 1551 1552 1553 1554 1554 1555 1555 1555 1556 1556 1556 1557 1557 1558 1558 1558 1558 1558 1558 1558 1558 1558 1557 1557 1557 1556 1555 1554 1553 1552 1551
1536 1537 1539 1540 1542 1543 1545 1546 1547 1548 1549 1550 1551 1551 1552 1553 1554 1554 1554 1555 1555 1555 1556 1556 1557 1557 1558 1558 1558 1558 1558 1558 1558 1558 1557 1557 1557 1556 1555 1554 1554 1553 1551
1534 1535 1537 1539 1540 1542 1543 1544 1545 1546 1547 1549 1550 1550 1551 1552 1553 1553 1554 1554 1554 1555 1555 1556 1556 1557 1557 1558 1558 1558 1558 1558 1558 1557 1557 1556 1556 1555 1555 1554 1553 1553 1551
1531 1533 1535 1537 1538 1540 1541 1543 1544 1545 1546 1547 1548 1549 1550 1551 1552 1552 1553 1553 1554 1554 1555 1555 1556 1556 1557 1557 1557 1558 1558 1557 1557 1557 1556 1556 1556 1555 1555 1554 1553 1552 1551
1529 1531 1533 1535 1536 1538 1539 1541 1542 1543 1544 1545 1547 1548 1549 1550 1551 1551 1552 1553 1553 1554 1554 1554 1555 1555 1556 1556 1557 1557 1557 1557 1557 1557 1556 1555 1555 1555 1554 1553 1553 1552 1551
1526 1528 1530 1532 1534 1535 1537 1538 1540 1541 1542 1544 1545 1546 1547 1548 1549 1550 1551 1551 1552 1553 1553 1554 1554 1555 1555 1556 1556 1556 1556 1556 1556 1555 1555 1555 1554 1554 1553 1553 1552 1551 1550
1523 1525 1527 1529 1531 1532 1534 1535 1537 1539 1540 1542 1543 1545 1546 1547 1548 1548 1549 1550 1550 1551 1552 1553 1553 1554 1554 1555 1555 1555 1555 1555 1555 1554 1554 1554 1553 1553 1552 1551 1550 1549 1548
1519 1521 1524 1526 1528 1530 1531 1533 1535 1536 1538 1540 1541 1543 1544 1545 1546 1546 1547 1548 1549 1549 1550 1551 1551 1552 1553 1553 1553 1553 1553 1553 1553 1553 1553 1552 1552 1551 1550 1550 1549 1548 1546
1516 1518 1521 1523 1525 1527 1529 1531 1532 1534 1536 1537 1539 1540 1541 1542 1543 1544 1545 1546 1547 1547 1548 1549 1549 1550 1551 1551 1551 1551 1551 1552 1551 1551 1551 1550 1550 1549 1548 1548 1547 1546 1545
1513 1515 1517 1519 1522 1524 1526 1528 1530 1531 1533 1534 1536 1537 1538 1540 1541 1541 1542 1543 1544 1545 1545 1546 1547 1548 1549 1549 1549 1549 1550 1550 1549 1549 1548 1548 1547 1547 1546 1546 1545 1544 1543
1510 1511 1513 1516 1518 1520 1522 1525 1526 1528 1529 1531 1532 1533 1535 1536 1538 1539 1540 1541 1541 1542 1543 1544 1545 1546 1546 1546 1546 1547 1547 1547 1546 1546 1545 1545 1545 1544 1544 1543 1542 1541 1540
1506 1508 1510 1512 1515 1517 1519 1521 1523 1525 1526 1527 1529 1530 1532 1533 1534 1536 1537 1538 1539 1539 1540 1541 1542 1542 1543 1543 1544 1544 1544 1544 1544 1543 1543 1543 1542 1542 1541 1540 1539 1538 1537
1503 1505 1507 1509 1512 1514 1516 1518 1520 1522 1523 1525 1526 1527 1528 1529 1531 1533 1534 1535 1535 1536 1537 1538 1538 1539 1539 1540 1540 1540 1541 1541 1541 1540 1540 1539 1539 1538 1537 1536 1536 1534 1533
1500 1502 1504 1506 1509 1511 1513 1515 1517 1519 1520 1522 1523 1525 1526 1527 1529 1530 1531 1532 1533 1534 1534 1534 1534 1535 1535 1536 1537 1537 1537 1537 1537 1537 1537 1536 1535 1535 1534 1533 1532 1531 1529
1497 1499 1501 1503 1505 1508 1510 1511 1513 1515 1517 1519 1520 1522 1523 1524 1525 1526 1527 1528 1529 1530 1530 1530 1530 1531 1532 1533 1533 1534 1534 1534 1534 1534 1533 1532 1532 1531 1530 1529 1528 1527 1526
1494 1496 1498 1500 1503 1505 1507 1509 1510 1512 1513 1515 1517 1518 1520 1521 1522 1523 1525 1525 1525 1525 1526 1526 1527 1528 1529 1529 1530 1530 1530 1531 1530 1530 1529 1529 1528 1527 1526 1525 1524 1523 1522
1492 1494 1496 1498 1500 1502 1504 1506 1507 1509 1510 1512 1514 1515 1517 1518 1519 1520 1521 1521 1521 1522 1522 1523 1524 1525 1525 1526 1526 1527 1527 1526 1526 1526 1525 1525 1524 1523 1522 1521 1520 1519 1518
1489 1491 1493 1495 1497 1499 1501 1503 1504 1506 1507 1509 1511 1512 1514 1515 1516 1516 1517 1517 1518 1518 1519 1520 1521 1522 1522 1523 1523 1523 1523 1522 1522 1522 1521 1521 1520 1519 1518 1517 1516 1515 1513
1487 1489 1491 1493 1494 1496 1498 1500 1501 1503 1504 1506 1508 1510 1511 1512 1512 1513 1514 1514 1515 1516 1516 1517 1518 1518 1519 1519 1519 1519 1519 1518 1518 1517 1517 1516 1515 1514 1513 1512 1511 1510 1509
1484 1486 1488 1490 1491 1493 1495 1497 1499 1500 1502 1503 1505 1506 1508 1509 1509 1510 1511 1511 1512 1513 1514 1514 1515 1515 1515 1516 1516 1515 1515 1514 1514 1513 1513 1512 1511 1510 1509 1508 1507 1505 1504
1481 1483 1485 1487 1489 1491 1493 1494 1496 1497 1499 1500 1502 1503 1504 1505 1506 1507 1508 1509 1509 1510 1510 1511 1511 1511 1512 1512 1512 1511 1511 1510 1510 1509 1508 1508 1507 1506 1505 1503 1502 1501 1500
1478 1480 1482 1484 1486 1488 1490 1491 1493 1494 1496 1497 1499 1500 1501 1503 1503 1504 1505 1505 1506 1507 1507 1507 1508 1508 1508 1508 1508 1507 1507 1506 1506 1505 1504 1503 1502 1501 1500 1498 1497 1496 1495
1476 1477 1479 1481 1483 1485 1487 1488 1490 1492 1493 1495 1496 1497 1499 1500 1501 1501 1502 1503 1503 1504 1504 1504 1504 1504 1504 1504 1504 1503 1502 1502 1501 1500 1499 1498 1497 1496 1495 1493 1492 1491 1490
1474 1475 1477 1479 1480 1482 1484 1485 1487 1489 1490 1492 1493 1494 1496 1497 1498 1498 1499 1500 1500 1501 1501 1501 1501 1501 1500 1500 1500 1499 1498 1497 1496 1495 1494 1493 1492 1490 1489 1488 1487 1486 1485